Weather reports worldwide

Advertisment
Ulm-Maehringen, Germany (10840): temperature & dewpoint: 16.02.2019 22:00:00 - 22.02.2019 22:00:00 (CET)Ulm-Maehringen, Germany (10840): temperature 5cm & temperature -5cm: 16.02.2019 22:00:00 - 22.02.2019 22:00:00 (CET)Ulm-Maehringen, Germany (10840): temperature -20cm & temperature -100cm: 16.02.2019 22:00:00 - 22.02.2019 22:00:00 (CET)Ulm-Maehringen, Germany (10840): wind speed & gusts: 16.02.2019 22:00:00 - 22.02.2019 22:00:00 (CET)Ulm-Maehringen, Germany (10840): wind direction: 16.02.2019 22:00:00 - 22.02.2019 22:00:00 (CET)Ulm-Maehringen, Germany (10840): reduced air pressure: 16.02.2019 22:00:00 - 22.02.2019 22:00:00 (CET)Ulm-Maehringen, Germany (10840): visibility: 16.02.2019 22:00:00 - 22.02.2019 22:00:00 (CET)Ulm-Maehringen, Germany (10840): sunshine duration: 16.02.2019 22:00:00 - 22.02.2019 22:00:00 (CET)Ulm-Maehringen, Germany (10840): precipitation: 16.02.2019 22:00:00 - 22.02.2019 22:00:00 (CET)
Date & Time tt [°C] td [°C] tt 5cm [°C] tt -5cm [°C] tt -20cm [°C] tt -100cm [°C] ff [km/h] ff [kn] fx [km/h] fx [kn] dd ppp [hPa] vv [km] sd [min] rr [mm]
22.02.2019 22:00:00 3,0 2,4 1,7 2,8 5,0 3,9 8 5 11 6 NNE 1038,6 17 0 0,0
22.02.2019 21:00:00 4,0 2,8 1,7 3,3 5,2 3,9 5 3 8 4 N 1038,0 22 0 0,0
22.02.2019 20:00:00 4,0 2,9 -1,2 3,7 5,3 3,9 4 2 14 7 NW 1037,6 27 0 0,0
22.02.2019 19:00:00 4,4 2,6 1,7 5,0 5,4 3,9 14 8 18 10 N 1037,2 33 0 0,0
22.02.2019 18:00:00 5,8 3,4 3,5 6,6 5,3 3,9 14 8 19 10 N 1036,4 28 2 0,0
22.02.2019 17:00:00 8,3 4,2 8,1 7,8 5,1 3,9 16 9 26 14 N 1035,5 35 4 0,0
22.02.2019 16:00:00 8,6 3,9 9,2 8,6 4,9 3,9 20 11 25 14 N 1035,1 38 7 0,0
22.02.2019 15:00:00 9,9 3,7 13,6 8,8 4,6 3,9 12 7 21 12 N 1034,3 35 31 0,0
22.02.2019 14:00:00 8,9 4,9 11,3 8,3 4,4 3,9 14 7 21 11 N 1034,5 19 9 0,0
22.02.2019 13:00:00 7,8 5,2 8,6 7,0 4,3 3,9 9 5 14 8 NNW 1034,5 12 0 0,0
22.02.2019 12:00:00 7,5 5,5 8,1 6,8 4,1 3,9 11 6 19 11 NNW 1034,7 11 0 0,0
22.02.2019 11:00:00 7,4 5,9 7,8 6,3 4,0 3,9 13 7 20 11 NNW 1034,1 11 0 0,0
22.02.2019 10:00:00 7,0 6,3 7,4 5,4 3,9 3,9 12 7 20 11 NW 1033,4 12 0 0,0
22.02.2019 09:00:00 6,0 6,0 6,2 4,7 3,9 3,9 5 3 11 6 WNW 1033,6 3,2 0 0,0
22.02.2019 08:00:00 5,8 5,8 5,6 4,4 3,9 3,8 7 4 13 7 W 1032,7 3,7 0 0,1
22.02.2019 07:00:00 5,8 5,8 5,6 4,2 3,9 3,8 5 3 13 7 W 1032,4 1,7 0 0,1
22.02.2019 06:00:00 6,1 5,6 5,7 3,9 4,0 3,8 8 4 22 12 WNW 1032,1 6 0 0,0
22.02.2019 05:00:00 6,7 4,7 6,1 3,3 4,1 3,8 11 6 25 13 WNW 1031,4 13 0 0,0
22.02.2019 04:00:00 5,9 3,9 4,2 3,0 4,2 3,8 9 5 16 9 WNW 1031,3 12 0 0,0
22.02.2019 03:00:00 5,5 3,8 3,1 3,2 4,3 3,8 9 5 13 7 WSW 1031,1 10 0 0,0
22.02.2019 02:00:00 6,5 4,1 4,0 3,6 4,4 3,8 6 4 16 9 W 1031,1 13 0 0,0
22.02.2019 01:00:00 7,2 4,1 6,0 3,9 4,5 3,8 9 5 18 10 WNW 1030,9 18 0 0,0
22.02.2019 00:00:00 4,9 3,0 3,2 3,9 4,6 3,8 5 3 9 5 WSW 1031,2 13 0 0,0
21.02.2019 23:00:00 5,7 3,7 4,3 3,9 4,7 3,8 3 2 8 4 SSW 1030,9 14 0 0,0
21.02.2019 22:00:00 4,2 2,6 3,0 4,0 4,9 3,8 5 3 7 4 WSW 1031,1 13 0 0,0
21.02.2019 21:00:00 5,4 3,5 2,0 4,4 5,0 3,8 4 2 8 5 W 1030,7 13 0 0,0
21.02.2019 20:00:00 5,9 3,3 2,7 5,1 5,1 3,8 5 3 10 5 W 1030,3 15 0 0,0
21.02.2019 19:00:00 6,9 3,9 3,7 6,2 5,0 3,8 6 4 14 7 NW 1029,5 19 0 0,0
21.02.2019 18:00:00 9,7 4,4 7,9 7,6 4,9 3,8 9 5 16 9 NW 1028,3 31 3 0,0
21.02.2019 17:00:00 11,4 3,8 10,5 8,7 4,6 3,8 6 4 13 7 WNW 1027,3 45 0 0,0
21.02.2019 16:00:00 12,1 3,5 12,4 9,7 4,2 3,8 8 4 17 9 WNW 1026,9 48 13 0,0
21.02.2019 15:00:00 12,3 3,5 13,7 10,6 3,7 3,8 9 5 22 12 WSW 1027,1 47 39 0,0
21.02.2019 14:00:00 12,0 3,4 14,5 10,4 3,2 3,8 10 5 18 10 WSW 1027,5 38 48 0,0
21.02.2019 13:00:00 11,1 3,9 14,0 9,1 2,8 3,8 10 5 25 14 SW 1028,0 24 56 0,0
21.02.2019 12:00:00 9,4 4,9 10,4 7,8 2,5 3,8 9 5 16 8 S 1029,0 14 56 0,0
21.02.2019 11:00:00 8,5 4,3 11,2 4,5 2,5 3,8 9 5 12 6 S 1029,1 19 60 0,0
21.02.2019 10:00:00 6,0 3,0 7,3 0,8 2,6 3,8 6 3 7 4 SSW 1029,7 15 60 0,0
21.02.2019 09:00:00 1,1 -0,3 1,7 0,8 2,7 3,7 3 2 5 3 WNW 1030,9 10 60 0,0
21.02.2019 08:00:00 -1,4 -1,5 -2,3 0,8 2,8 3,7 4 2 8 5 W 1031,2 7 2 0,0
21.02.2019 07:00:00 -2,1 -2,3 -3,5 0,9 2,9 3,7 6 3 8 4 W 1031,0 8 0 0,0
21.02.2019 06:00:00 -1,3 -1,3 -3,1 1,0 3,1 3,7 5 3 6 3 WSW 1030,6 7 0 0,0
21.02.2019 05:00:00 -1,5 -1,6 -3,0 1,1 3,2 3,7 4 2 9 5 W 1030,6 8 0 0,0
21.02.2019 04:00:00 -1,1 -1,4 -2,8 1,2 3,4 3,7 5 3 8 4 W 1030,3 10 0 0,0
21.02.2019 03:00:00 -0,1 -0,7 -2,2 1,4 3,5 3,7 5 3 6 4 W 1030,0 13 0 0,0
21.02.2019 02:00:00 0,7 -0,2 -0,2 1,8 3,7 3,7 3 2 6 4 WNW 1029,6 15 0 0,0
21.02.2019 01:00:00 1,2 0,4 0,2 1,8 3,9 3,7 4 2 7 4 SW 1029,3 16 0 0,0
21.02.2019 00:00:00 1,7 0,5 -0,9 2,4 4,0 3,7 3 2 6 3 W 1028,9 18 0 0,0
20.02.2019 23:00:00 1,8 0,4 0,7 2,5 4,2 3,7 4 2 8 4 WNW 1028,8 20 0 0,0
20.02.2019 22:00:00 2,7 1,1 -0,1 3,0 4,4 3,7 5 3 8 4 WNW 1028,3 24 0 0,0
20.02.2019 21:00:00 3,9 1,4 1,0 3,7 4,5 3,7 5 3 6 4 WNW 1027,7 28 0 0,0
20.02.2019 20:00:00 4,6 1,5 2,3 4,2 4,6 3,7 4 2 6 3 W 1027,1 34 0 0,0
20.02.2019 19:00:00 5,4 1,8 2,8 4,9 4,6 3,7 4 2 5 3 NW 1026,5 32 0 0,0
20.02.2019 18:00:00 7,2 1,8 3,6 6,3 4,5 3,7 0 0 8 5 N 1025,4 45 0 0,0
20.02.2019 17:00:00 9,0 1,5 7,8 7,6 4,3 3,7 6 3 20 11 W 1024,7 51 46 0,0
20.02.2019 16:00:00 9,5 1,2 10,6 8,6 4,0 3,7 11 6 23 12 W 1024,8 52 37 0,0
20.02.2019 15:00:00 9,2 2,2 10,6 9,1 3,6 3,7 8 4 21 11 W 1025,0 65 38 0,0
20.02.2019 14:00:00 8,7 2,1 11,0 8,9 3,3 3,7 12 6 26 14 NW 1025,1 42 43 0,0
20.02.2019 13:00:00 8,5 2,8 11,7 7,5 3,0 3,7 14 8 23 12 WSW 1025,3 30 36 0,0
20.02.2019 12:00:00 7,8 2,8 8,9 7,0 2,6 3,7 14 7 24 13 W 1025,3 33 20 0,0
20.02.2019 11:00:00 7,6 3,7 9,7 6,1 2,5 3,7 8 4 15 8 WSW 1025,0 16 59 0,0
20.02.2019 10:00:00 5,5 2,6 6,9 3,6 2,4 3,7 7 4 10 5 SSW 1025,4 11 57 0,0
20.02.2019 09:00:00 3,2 2,3 2,5 1,9 2,5 3,7 3 1 10 5 WNW 1025,8 7 0 0,0
20.02.2019 08:00:00 2,7 2,0 1,9 1,6 2,5 3,7 4 2 10 6 WSW 1025,6 6 0 0,0
20.02.2019 07:00:00 2,4 2,1 1,3 1,6 2,6 3,7 2 1 11 6 S 1025,2 7 0 0,0
20.02.2019 06:00:00 1,8 1,3 0,7 1,6 2,7 3,6 3 2 8 4 W 1025,0 5 0 0,0
20.02.2019 05:00:00 2,4 1,7 1,3 1,5 2,8 3,6 5 3 8 5 WSW 1024,7 8 0 0,0
20.02.2019 04:00:00 2,1 1,5 1,1 1,2 2,9 3,6 4 2 9 5 WSW 1024,7 8 0 0,0
20.02.2019 03:00:00 1,6 1,6 0,5 1,1 3,1 3,6 5 3 7 4 W 1025,1 7 0 0,0
20.02.2019 02:00:00 2,0 1,5 -0,9 1,3 3,2 3,6 5 3 7 4 SW 1024,8 11 0 0,0
20.02.2019 01:00:00 2,3 1,3 0,8 1,6 3,4 3,6 6 3 8 4 NNW 1024,7 14 0 0,0
20.02.2019 00:00:00 2,8 2,2 0,1 2,2 3,5 3,6 5 3 9 5 WNW 1024,5 10 0 0,0
19.02.2019 23:00:00 3,9 2,6 1,1 2,6 3,6 3,6 4 2 7 4 W 1023,9 11 0 0,0
19.02.2019 22:00:00 4,0 3,2 1,8 3,5 3,6 3,6 4 2 6 3 WNW 1023,7 13 0 0,0
19.02.2019 21:00:00 5,2 3,5 3,1 4,2 3,6 3,6 0 0 10 5 N 1023,0 19 0 0,1
19.02.2019 20:00:00 5,6 3,3 4,9 4,5 3,6 3,6 4 2 9 5 NNW 1022,7 22 0 0,0
19.02.2019 19:00:00 6,4 3,3 5,1 5,0 3,5 3,6 3 2 8 4 WNW 1022,1 28 0 0,0
19.02.2019 18:00:00 6,6 3,1 5,8 5,6 3,3 3,6 6 3 12 6 NW 1021,7 29 0 0,0
19.02.2019 17:00:00 7,5 3,5 7,1 6,3 3,0 3,6 8 4 22 12 NNW 1021,3 30 6 0,0
19.02.2019 16:00:00 8,8 3,5 8,8 7,2 2,6 3,6 18 10 25 14 NNW 1020,8 42 0 0,0
19.02.2019 15:00:00 11,1 3,2 11,3 8,2 2,1 3,6 15 8 26 14 WSW 1019,9 39 49 0,0
19.02.2019 14:00:00 10,6 3,7 13,0 7,0 1,8 3,6 16 8 23 12 SSW 1020,3 31 60 0,0
19.02.2019 13:00:00 8,6 2,1 10,1 4,2 1,7 3,6 13 7 19 10 SSW 1021,3 24 34 0,0
19.02.2019 12:00:00 6,8 1,8 7,2 0,8 1,8 3,6 13 7 21 11 SW 1022,3 22 18 0,0
19.02.2019 11:00:00 5,3 0,7 4,8 0,3 1,8 3,6 12 7 23 12 SW 1022,6 21 18 0,0
19.02.2019 10:00:00 4,2 0,5 5,0 0,3 1,9 3,6 11 6 18 10 SSW 1022,4 16 51 0,0
19.02.2019 09:00:00 3,0 0,0 2,8 0,3 2,0 3,6 11 6 17 9 SSW 1022,7 13 60 0,0
19.02.2019 08:00:00 1,5 -0,9 -1,7 0,3 2,1 3,6 7 4 16 8 WSW 1023,0 14 9 0,0
19.02.2019 07:00:00 0,9 -1,6 -2,1 0,4 2,2 3,6 7 4 14 7 SW 1022,7 16 0 0,0
19.02.2019 06:00:00 1,1 -1,8 -2,0 0,5 2,3 3,6 10 5 18 10 SW 1022,6 20 0 0,0
19.02.2019 05:00:00 -0,8 -2,5 -4,1 0,6 2,4 3,6 7 4 13 7 WSW 1022,9 17 0 0,0
19.02.2019 04:00:00 0,9 -2,0 -2,9 0,7 2,5 3,6 9 5 14 7 SW 1022,1 24 0 0,0
19.02.2019 03:00:00 0,9 -2,0 -2,6 0,8 2,7 3,5 8 5 13 7 SW 1022,0 24 0 0,0
19.02.2019 02:00:00 1,1 -2,0 -2,8 0,9 2,8 3,5 9 5 14 8 SW 1022,0 22 0 0,0
19.02.2019 01:00:00 -1,1 -2,4 -4,0 1,0 3,0 3,5 4 2 9 5 W 1022,4 14 0 0,0
19.02.2019 00:00:00 -1,5 -3,1 -3,8 1,2 3,2 3,5 6 3 7 4 WSW 1022,3 16 0 0,0
18.02.2019 23:00:00 -1,5 -3,0 -3,1 1,3 3,4 3,5 5 3 7 4 W 1022,2 19 0 0,0
18.02.2019 22:00:00 0,0 -2,5 -3,2 1,6 3,6 3,5 5 3 7 4 W 1022,0 23 0 0,0
18.02.2019 21:00:00 1,0 -1,7 -2,7 1,9 3,8 3,5 4 2 9 5 W 1021,6 25 0 0,0
18.02.2019 20:00:00 3,3 -1,3 -1,9 2,6 3,9 3,5 3 2 6 3 W 1021,0 34 0 0,0
18.02.2019 19:00:00 6,8 0,6 0,1 4,1 3,9 3,5 3 2 6 3 NE 1019,8 27 0 0,0
18.02.2019 18:00:00 9,7 -1,0 1,6 6,2 3,7 3,5 3 2 7 4 SSE 1019,1 34 42 0,0
18.02.2019 17:00:00 11,5 -1,6 10,0 8,1 3,3 3,5 6 4 12 6 S 1018,7 57 60 0,0
18.02.2019 16:00:00 12,2 -2,4 12,9 9,4 2,8 3,5 8 5 11 6 SSE 1019,0 50 60 0,0
18.02.2019 15:00:00 11,7 -1,2 13,7 9,6 2,3 3,5 6 3 14 7 SSE 1019,4 39 60 0,0
18.02.2019 14:00:00 10,9 0,1 13,5 9,0 1,8 3,5 6 4 11 6 E 1020,1 29 60 0,0
18.02.2019 13:00:00 10,2 1,8 12,5 6,5 1,6 3,5 5 3 9 5 ESE 1021,0 31 60 0,0
18.02.2019 12:00:00 8,3 -0,2 9,6 1,1 1,6 3,5 4 2 8 5 E 1022,1 35 60 0,0
18.02.2019 11:00:00 6,0 -0,1 6,6 0,1 1,7 3,5 6 3 8 5 SE 1023,2 34 60 0,0
18.02.2019 10:00:00 3,3 -2,4 3,9 0,1 1,8 3,5 7 4 8 5 SSE 1024,1 45 60 0,0
18.02.2019 09:00:00 -0,8 -4,6 0,9 0,1 1,9 3,5 3 2 6 3 W 1025,5 52 60 0,0
18.02.2019 08:00:00 -3,3 -5,1 -6,1 0,2 2,0 3,5 4 2 13 7 WSW 1026,1 43 15 0,0
18.02.2019 07:00:00 -3,5 -5,3 -6,4 0,3 2,1 3,5 4 2 6 3 WNW 1026,1 31 0 0,0
18.02.2019 06:00:00 -3,1 -4,5 -6,4 0,4 2,2 3,5 4 2 6 4 WSW 1025,9 30 0 0,0
18.02.2019 05:00:00 -2,5 -4,1 -6,1 0,5 2,4 3,5 3 2 7 4 W 1025,8 28 0 0,0
18.02.2019 04:00:00 -2,4 -4,2 -5,6 0,6 2,5 3,5 6 3 7 4 W 1026,0 31 0 0,0
18.02.2019 03:00:00 -2,0 -3,8 -5,4 0,8 2,6 3,5 4 2 6 4 W 1026,4 31 0 0,0
18.02.2019 02:00:00 -2,1 -3,4 -4,3 0,9 2,8 3,5 3 2 6 3 W 1026,9 25 0 0,0
18.02.2019 01:00:00 -1,7 -3,0 -3,9 1,0 2,9 3,5 4 2 5 3 W 1027,0 23 0 0,0
18.02.2019 00:00:00 -0,8 -2,7 -3,9 1,2 3,1 3,4 3 2 7 4 W 1027,0 26 0 0,0
17.02.2019 23:00:00 -0,2 -1,9 -3,1 1,3 3,3 3,4 4 2 6 3 W 1027,0 23 0 0,0
17.02.2019 22:00:00 0,9 -1,5 -2,8 1,6 3,5 3,4 3 2 5 3 WNW 1026,7 24 0 0,0
17.02.2019 21:00:00 1,9 -1,4 -2,4 2,0 3,7 3,4 4 2 5 3 WNW 1026,5 31 0 0,0
17.02.2019 20:00:00 4,1 -0,9 -1,6 2,8 3,9 3,4 4 2 6 4 W 1025,8 41 0 0,0
17.02.2019 19:00:00 9,0 -0,2 0,2 4,3 3,8 3,4 3 1 8 4 NNE 1024,3 50 0 0,0
17.02.2019 18:00:00 11,6 -0,7 3,0 6,4 3,6 3,4 6 4 10 5 S 1023,5 63 45 0,0
17.02.2019 17:00:00 12,8 0,8 11,1 8,4 3,2 3,4 8 5 13 7 S 1023,3 69 60 0,0
17.02.2019 16:00:00 14,1 2,2 14,5 9,4 2,7 3,4 9 5 15 8 S 1023,3 50 60 0,0
17.02.2019 15:00:00 13,4 2,4 14,7 9,5 2,1 3,4 11 6 17 9 SSE 1023,8 35 60 0,0
17.02.2019 14:00:00 12,8 2,9 14,7 8,7 1,7 3,4 9 5 14 8 SSE 1024,5 37 60 0,0
17.02.2019 13:00:00 11,3 0,8 13,2 6,2 1,4 3,4 11 6 16 9 SSW 1025,4 30 60 0,0
17.02.2019 12:00:00 9,7 0,5 10,7 1,4 1,5 3,4 12 6 19 11 SSW 1026,5 23 60 0,0
17.02.2019 11:00:00 7,0 0,0 7,2 0,1 1,5 3,4 12 7 20 11 SW 1027,2 19 60 0,0
17.02.2019 10:00:00 4,4 -0,5 4,2 0,1 1,6 3,4 13 7 21 11 SW 1028,0 17 60 0,0
17.02.2019 09:00:00 2,4 -1,3 1,5 0,1 1,7 3,4 11 6 18 10 SW 1028,8 15 60 0,0
17.02.2019 08:00:00 0,1 -1,6 -4,5 0,2 1,8 3,4 8 4 11 6 SW 1029,3 11 13 0,0
17.02.2019 07:00:00 -2,7 -3,3 -5,8 0,3 1,9 3,4 8 4 17 9 SW 1029,9 7 0 0,0
17.02.2019 06:00:00 -3,5 -4,3 -5,5 0,4 2,0 3,4 10 5 15 8 SW 1030,1 10 0 0,0
17.02.2019 05:00:00 -4,0 -4,4 -6,1 0,5 2,1 3,4 5 3 7 4 W 1030,5 8 0 0,0
17.02.2019 04:00:00 -3,3 -3,5 -5,4 0,6 2,2 3,4 4 2 4 2 WSW 1030,2 9 0 0,0
17.02.2019 03:00:00 -2,8 -3,2 -5,2 0,7 2,3 3,4 3 1 5 3 W 1030,5 9 0 0,0
17.02.2019 02:00:00 -2,4 -2,6 -4,5 0,8 2,4 3,4 3 2 5 3 W 1030,6 8 0 0,0
17.02.2019 01:00:00 -1,9 -2,0 -3,9 0,9 2,6 3,4 3 2 4 2 W 1030,7 6 0 0,0
17.02.2019 00:00:00 -1,5 -2,0 -3,7 1,0 2,7 3,4 3 2 6 3 WNW 1030,8 7 0 0,0
16.02.2019 23:00:00 -1,0 -1,4 -3,2 1,2 2,9 3,4 4 2 6 3 W 1031,0 6 0 0,0
16.02.2019 22:00:00 0,2 -0,6 -2,9 1,4 3,1 3,4 4 2 5 3 WNW 1030,9 7 0 0,0

tt = temperature
td = dewpoint
tt 5cm = temperature 5cm
tt -5cm = temperature -5cm
tt -20cm = temperature -20cm
tt -100cm = temperature -100cm
ff = wind speed
fx = gusts
dd = wind direction
ppp = reduced air pressure
vv = visibility
sd = sunshine duration
rr = precipitation

Next stations